PulseSat

PulseSat

CZ-3B R/B

Last updated on Aug. 18, 2017, 12:15 a.m. UTC

1 38253U 12018D   17229.72470545  .32240224  13120-4  45425-3 0  9991
2 38253  54.7090 316.9355 0105246  48.1733 313.1742 16.31821813136919
UTC
Height (km)
Latitude
Longitude
Inclination
Orbital Period

Next 30 passes for location: Hong Kong

Rise time Rise Azimuth (degrees) Set time Set Azimuth (degrees) Duration Max altitude (degrees)

No matching passes for this satellites

PulseSat

PulseSat is the new satellites software and hardware trackering solution by Pulsely.
Satellite Two Line Element Set source: US Air Force Space Command

Download PulseSat for iOS
© 2017 Pulsely Limited